TimeHST,TemperatureF,Dew PointF,Humidity,Sea Level PressureIn,VisibilityMPH,Wind Direction,Wind SpeedMPH,Gust SpeedMPH,PrecipitationIn,Events,Conditions,WindDirDegrees,DateUTC
12:55 AM,60.6,57.2,88,29.97,10.0,NNW,3.5,-,N/A,,Clear,340,2013-03-15 10:55:00
1:55 AM,61.9,57.0,84,29.95,10.0,NNW,5.8,-,N/A,,Partly Cloudy,340,2013-03-15 11:55:00
2:55 AM,59.5,55.0,85,29.94,10.0,NNW,3.5,-,N/A,,Clear,340,2013-03-15 12:55:00
3:55 AM,59.5,55.9,88,29.93,10.0,East,3.5,-,N/A,,Clear,80,2013-03-15 13:55:00
4:55 AM,59.5,55.6,87,29.92,10.0,Calm,Calm,-,N/A,,Clear,0,2013-03-15 14:55:00
5:55 AM,60.6,56.5,86,29.93,10.0,North,4.6,-,N/A,,Mostly Cloudy,360,2013-03-15 15:55:00
6:55 AM,59.4,55.0,86,29.94,10.0,Calm,Calm,-,N/A,,Mostly Cloudy,0,2013-03-15 16:55:00
7:55 AM,64.9,58.8,81,29.95,10.0,Calm,Calm,-,N/A,,Clear,0,2013-03-15 17:55:00
8:55 AM,67.3,56.5,68,29.96,10.0,Variable,3.5,-,N/A,,Clear,0,2013-03-15 18:55:00
9:55 AM,71.1,56.5,60,29.96,10.0,Calm,Calm,-,N/A,,Partly Cloudy,0,2013-03-15 19:55:00
10:55 AM,72.0,56.8,59,29.96,10.0,West,9.2,21.9,N/A,,Clear,260,2013-03-15 20:55:00
11:55 AM,72.3,57.0,59,29.94,10.0,West,10.4,23.0,N/A,,Partly Cloudy,280,2013-03-15 21:55:00
12:55 PM,72.0,58.1,62,29.92,10.0,WSW,12.7,19.6,N/A,,Partly Cloudy,250,2013-03-15 22:55:00
1:55 PM,71.4,57.7,62,29.89,10.0,West,16.1,21.9,N/A,,Partly Cloudy,260,2013-03-15 23:55:00
2:07 PM,71.6,59.0,64,29.90,10.0,West,16.1,-,N/A,,Light Drizzle,260,2013-03-16 00:07:00
2:17 PM,69.8,59.0,68,29.90,10.0,WSW,10.4,-,N/A,,Mostly Cloudy,240,2013-03-16 00:17:00
2:47 PM,69.8,59.0,68,29.90,10.0,WSW,9.2,-,N/A,,Light Drizzle,250,2013-03-16 00:47:00
2:55 PM,69.4,59.7,71,29.89,10.0,SW,10.4,-,0.00,,Overcast,230,2013-03-16 00:55:00
3:06 PM,69.8,59.0,68,29.90,10.0,WSW,15.0,19.6,N/A,,Light Drizzle,240,2013-03-16 01:06:00
3:18 PM,68.0,59.0,73,29.88,10.0,West,10.4,-,N/A,,Overcast,260,2013-03-16 01:18:00
3:44 PM,69.8,60.8,73,29.89,10.0,NW,11.5,-,N/A,,Light Drizzle,310,2013-03-16 01:44:00
3:55 PM,69.1,60.6,74,29.89,10.0,NW,9.2,-,0.00,,Light Drizzle,320,2013-03-16 01:55:00
3:56 PM,69.8,60.8,73,29.89,10.0,NW,8.1,-,N/A,,Mostly Cloudy,310,2013-03-16 01:56:00
4:55 PM,69.3,55.8,62,29.90,10.0,West,4.6,-,N/A,,Clear,280,2013-03-16 02:55:00
5:55 PM,69.1,54.7,60,29.91,10.0,NNW,8.1,-,N/A,,Overcast,330,2013-03-16 03:55:00
6:55 PM,67.6,55.8,66,29.93,10.0,West,6.9,-,N/A,,Overcast,270,2013-03-16 04:55:00
7:32 PM,66.2,59.0,78,29.94,10.0,NNW,9.2,-,N/A,,Overcast,340,2013-03-16 05:32:00
7:55 PM,65.1,60.1,84,29.94,10.0,NNW,8.1,-,N/A,,Mostly Cloudy,330,2013-03-16 05:55:00
8:55 PM,64.4,60.8,88,29.95,10.0,North,4.6,-,N/A,,Mostly Cloudy,350,2013-03-16 06:55:00
9:16 PM,64.4,60.8,88,29.96,10.0,NNW,4.6,-,N/A,,Light Drizzle,330,2013-03-16 07:16:00
9:39 PM,64.4,60.8,88,29.97,6.0,NW,6.9,-,N/A,Rain,Rain,320,2013-03-16 07:39:00
9:41 PM,64.4,60.8,88,29.97,5.0,NNW,8.1,-,N/A,Rain,Rain,340,2013-03-16 07:41:00
9:55 PM,63.9,61.2,91,29.96,10.0,North,8.1,-,0.02,,Light Drizzle,350,2013-03-16 07:55:00
10:01 PM,64.4,60.8,88,29.96,10.0,North,6.9,-,N/A,,Mostly Cloudy,10,2013-03-16 08:01:00
10:55 PM,63.9,60.4,89,29.95,10.0,NNW,9.2,-,0.00,,Mostly Cloudy,330,2013-03-16 08:55:00
11:55 PM,63.7,59.9,87,29.94,10.0,NW,8.1,-,N/A,,Mostly Cloudy,320,2013-03-16 09:55:00